Location: Unspecified
(0.0000°N, 0.0000°E)
Time: 09:23:45
(UTC+00:00)

Vanguard 2 Rocket - Pass Details

Date: 18 December 2018
Orbit: 556 x 3325 km, 32.9° (Epoch: 22 March)

Event Time Altitude Azimuth Distance (km) Brightness Sun altitude
Rises 19:37:20 0° 230° (SW) 7,160 12.8 -23.0°
Reaches altitude 10° 19:44:55 10° 214° (SSW) 6,280 11.9 -24.7°
Maximum altitude 19:57:29 19° 175° (S) 5,349 11.0 -27.5°
Drops below altitude 10° 20:08:34 10° 135° (SE) 5,519 10.7 -29.9°
Enters shadow 20:13:50 - 120° (ESE) 5,999 10.8 -31.1°
Sets 20:14:26 0° 118° (ESE) 6,068 - -31.2°
